Vorticity
36 35 20 20 28 22 28 31 23 17 33 17 23 20 11 6 9 9 10 5 4 3 7 10 14 17 16 15 13 11 8 9 10 12 11 13 11 7 5 6 6 8 8 8 11
23 16 8 27 36 -33 -17 -5 15 20 28 30 21 8 16 13 24 7 9 8 7 5 4 7 10 11 14 12 13 17 17 18 16 15 15 12 11 12 11 14 18 21 21 20 17
26 16 17 28 16 10 -2 24 15 4 23 22 14 13 18 -8 20 28 6 8 7 7 5 7 8 5 6 8 8 6 8 4 12 14 14 13 17 20 19 16 15 10 8 4 4
10 9 12 24 14 16 -6 7 36 7 18 25 16 18 15 23 11 43 16 7 8 7 5 4 3 4 3 4 5 5 6 6 5 5 7 10 10 9 7 5 3 2 0 3 5
12 8 10 14 24 19 6 -9 -7 4 37 12 27 12 19 -32 -18 -7 37 10 8 6 6 2 4 4 5 4 4 4 5 4 4 6 5 5 4 3 1 2 1 -0 2 4 2
12 5 8 7 10 9 16 22 14 11 6 10 13 26 29 19 -11 28 35 10 10 8 7 7 5 5 4 5 5 4 4 5 4 4 3 2 3 2 1 0 0 0 2 2 1
16 6 2 17 29 39 17 18 29 5 6 23 3 13 21 20 19 10 28 11 10 9 7 9 6 8 7 5 5 5 3 3 3 4 3 2 2 1 2 1 1 1 1 2 2
7 -5 2 20 31 20 9 25 22 14 15 16 7 10 15 34 -11 -2 25 16 11 9 7 6 6 3 5 6 6 4 3 3 4 4 4 2 1 1 3 2 1 2 2 1 5
32 13 4 5 41 16 31 5 20 20 21 14 18 14 12 6 25 -11 34 35 13 7 8 6 5 5 5 2 3 3 3 3 3 3 3 3 2 3 2 2 4 2 6 8 6
15 15 10 12 3 13 26 25 4 3 12 13 15 16 9 18 13 -6 9 20 23 10 9 2 5 3 5 7 4 4 2 3 2 3 4 3 4 2 4 3 8 7 7 9 7
34 6 10 5 10 1 12 19 20 28 27 27 30 2 17 7 -14 -123 28 25 19 16 7 6 7 4 5 6 5 4 3 2 3 3 2 3 6 8 7 7 9 9 6 6 11
44 38 -6 -1 -4 7 18 21 16 26 7 11 30 7 16 11 28 -1 10 11 12 14 13 7 2 7 5 5 4 5 4 4 4 5 5 5 5 7 7 6 0 11 17 15 10
15 34 31 31 39 24 14 19 22 15 -6 15 28 14 13 14 26 23 4 -30 1 15 18 6 6 4 8 5 5 5 5 4 4 5 5 7 -1 1 8 21 17 14 11 7 4
25 23 22 22 19 10 13 17 24 15 6 20 5 12 -6 48 11 22 21 20 25 25 14 11 12 -0 1 3 3 0 2 1 0 -1 3 13 21 16 14 13 13 7 4 7 16
14 29 6 6 14 10 22 12 19 9 5 13 26 -4 10 5 18 8 2 2 35 19 17 17 14 18 13 7 4 3 5 10 14 15 14 13 14 18 13 8 5 12 14 16 6
11 13 9 7 15 24 17 11 2 1 7 22 7 17 -1 25 8 21 5 7 20 24 19 15 15 14 17 18 20 19 18 15 12 15 15 16 11 4 10 14 13 13 16 26 25
12 11 1 -3 7 5 5 7 15 12 12 9 1 5 9 21 3 4 3 9 11 -2 5 8 11 11 11 10 9 12 15 14 15 15 9 5 7 14 14 9 8 20 7 9 8
22 21 6 12 21 10 14 7 16 13 5 10 12 18 11 19 9 -1 4 8 -5 3 12 5 5 12 15 12 13 10 13 11 7 3 12 25 8 7 9 8 20 2 4 5 5
13 5 8 20 22 12 14 14 16 9 10 10 6 11 15 6 8 24 19 15 15 13 13 11 15 8 9 13 14 11 7 6 15 25 9 4 11 6 10 15 7 5 8 8 9
4 13 25 17 13 17 19 29 24 21 21 20 17 19 17 17 18 16 18 22 20 19 17 18 17 15 14 7 4 12 13 12 5 6 5 12 5 10 6 2 2 2 1 3 5
12 11 12 11 15 16 11 6 8 10 9 7 5 4 4 6 9 8 10 13 12 9 7 5 7 8 17 22 18 6 6 3 8 10 10 6 10 3 2 3 10 14 16 18 19
5 8 9 11 12 8 12 14 15 14 14 13 13 14 14 13 10 9 11 9 9 13 10 10 9 7 9 6 9 10 9 10 10 6 10 8 4 5 15 24 12 6 10 10 8
2 1 4 6 6 7 10 12 12 9 9 8 9 9 11 11 12 12 11 12 13 16 15 10 7 5 2 4 5 6 6 6 6 5 7 12 21 13 5 9 9 7 7 6 5
11 10 4 2 1 2 3 4 5 6 9 9 8 8 6 5 5 4 3 1 1 1 1 1 4 7 9 11 11 16 18 22 23 22 11 4 7 6 7 6 7 7 7 8 9
7 6 10 9 10 11 6 5 3 2 3 1 1 1 3 3 3 3 2 2 4 8 14 19 17 18 16 14 9 8 7 5 6 6 7 7 8 7 9 7 6 6 5 5 6
6 7 8 8 5 4 7 10 12 13 16 16 14 12 11 9 9 12 15 15 14 7 7 6 6 5 5 7 5 3 5 7 8 9 7 8 6 4 5 5 6 7 8 11 11
5 5 7 7 6 6 6 5 6 8 6 6 8 9 8 7 6 6 6 7 8 9 7 9 9 10 8 8 7 6 6 6 4 5 6 5 6 3 6 8 8 10 10 12 9
Height
5563 5561 5563 5565 5571 5582 5588 5593 5598 5602 5611 5625 5640 5657 5663 5675 5691 5702 5712 5722 5732 5742 5750 5757 5763 5770 5776 5781 5787 5792 5797 5802 5807 5811 5814 5817 5818 5818 5822 5825 5827 5831 5832 5832 5832
5558 5558 5560 5560 5563 5570 5579 5584 5590 5595 5602 5613 5627 5642 5656 5671 5678 5691 5702 5713 5723 5734 5744 5752 5758 5764 5771 5775 5781 5786 5792 5797 5801 5804 5807 5807 5809 5813 5816 5818 5821 5823 5825 5826 5827
5558 5558 5558 5558 5560 5569 5576 5580 5584 5589 5596 5605 5618 5631 5646 5664 5670 5679 5691 5704 5715 5726 5737 5747 5753 5760 5766 5771 5776 5783 5788 5792 5794 5798 5800 5802 5806 5808 5810 5813 5815 5818 5820 5823 5824
5560 5558 5559 5559 5563 5567 5571 5573 5578 5585 5592 5599 5609 5622 5637 5656 5666 5667 5684 5697 5710 5719 5729 5739 5748 5755 5761 5767 5772 5778 5783 5786 5789 5792 5796 5799 5802 5805 5807 5811 5812 5814 5816 5817 5819
5559 5559 5559 5560 5563 5565 5566 5569 5575 5584 5591 5598 5606 5617 5630 5645 5654 5664 5676 5690 5702 5713 5723 5732 5742 5750 5756 5763 5768 5773 5778 5782 5786 5789 5792 5796 5799 5801 5805 5807 5809 5811 5812 5813 5814
5559 5560 5560 5561 5560 5560 5562 5567 5573 5581 5589 5596 5604 5611 5623 5638 5653 5662 5669 5682 5694 5708 5718 5728 5737 5745 5752 5758 5764 5769 5773 5778 5782 5786 5790 5793 5796 5798 5801 5803 5804 5806 5807 5808 5809
5558 5560 5560 5557 5554 5553 5558 5564 5571 5579 5587 5594 5602 5609 5619 5632 5645 5654 5664 5677 5690 5703 5715 5725 5733 5742 5749 5755 5761 5765 5770 5773 5778 5783 5786 5789 5792 5794 5796 5797 5799 5800 5801 5802 5802
5559 5562 5561 5558 5554 5553 5557 5562 5570 5577 5586 5594 5602 5611 5620 5631 5641 5656 5663 5673 5684 5697 5708 5718 5726 5734 5743 5750 5757 5763 5767 5770 5774 5778 5781 5785 5787 5789 5791 5792 5793 5794 5795 5795 5794
5561 5563 5564 5562 5557 5556 5559 5564 5572 5579 5586 5593 5602 5611 5620 5630 5642 5654 5658 5664 5677 5689 5700 5711 5722 5731 5738 5745 5752 5757 5763 5768 5771 5774 5777 5780 5782 5784 5786 5787 5787 5788 5789 5787 5785
5567 5567 5567 5568 5566 5565 5565 5569 5575 5582 5586 5593 5602 5612 5620 5631 5642 5652 5658 5664 5673 5685 5697 5708 5718 5728 5734 5741 5749 5754 5759 5763 5766 5770 5772 5775 5777 5779 5781 5783 5783 5782 5782 5780 5778
5573 5572 5572 5573 5573 5574 5574 5575 5581 5585 5589 5596 5603 5612 5621 5630 5639 5645 5656 5663 5673 5683 5695 5705 5716 5724 5730 5737 5743 5749 5754 5759 5763 5766 5769 5771 5773 5772 5775 5776 5777 5776 5775 5772 5771
5580 5578 5578 5578 5579 5579 5580 5581 5583 5589 5594 5600 5607 5617 5624 5631 5638 5646 5658 5665 5673 5682 5692 5703 5712 5720 5728 5734 5740 5746 5751 5755 5759 5762 5765 5766 5768 5768 5767 5767 5767 5768 5765 5763 5761
5593 5588 5585 5585 5585 5587 5588 5590 5592 5596 5602 5607 5613 5620 5629 5635 5642 5651 5659 5666 5674 5682 5690 5700 5710 5718 5725 5732 5738 5743 5747 5751 5755 5757 5759 5761 5762 5762 5761 5760 5760 5758 5757 5755 5753
5608 5601 5598 5596 5597 5597 5598 5600 5602 5606 5611 5616 5622 5628 5634 5637 5644 5652 5660 5670 5676 5681 5689 5698 5707 5716 5723 5729 5735 5739 5743 5746 5749 5752 5754 5754 5754 5755 5753 5753 5753 5751 5750 5747 5745
5624 5617 5612 5611 5609 5610 5610 5611 5613 5616 5618 5624 5627 5633 5639 5646 5651 5657 5665 5669 5675 5682 5691 5698 5705 5713 5720 5727 5731 5736 5739 5741 5744 5745 5746 5747 5748 5750 5748 5747 5746 5745 5743 5741 5738
5637 5632 5628 5625 5623 5624 5623 5624 5626 5629 5627 5631 5636 5640 5646 5650 5655 5661 5667 5674 5678 5683 5690 5698 5704 5711 5716 5722 5726 5730 5734 5736 5738 5740 5741 5742 5743 5745 5744 5743 5741 5740 5739 5735 5732
5650 5645 5642 5639 5637 5637 5636 5637 5639 5638 5639 5641 5644 5647 5651 5655 5660 5665 5672 5677 5684 5689 5693 5698 5704 5710 5715 5719 5723 5727 5730 5733 5735 5736 5738 5738 5739 5740 5738 5738 5738 5736 5733 5731 5728
5662 5656 5653 5650 5647 5646 5646 5646 5648 5647 5649 5650 5652 5654 5657 5662 5666 5671 5676 5681 5686 5691 5695 5699 5706 5709 5714 5718 5722 5726 5728 5731 5732 5734 5735 5735 5736 5735 5734 5733 5732 5731 5730 5728 5725
5675 5669 5664 5659 5656 5654 5655 5658 5655 5654 5655 5657 5659 5662 5665 5668 5673 5675 5679 5684 5688 5692 5698 5702 5706 5710 5714 5718 5723 5725 5728 5730 5731 5732 5732 5732 5732 5731 5730 5730 5729 5728 5726 5724 5722
5687 5682 5676 5671 5668 5667 5670 5666 5663 5663 5663 5664 5666 5667 5671 5674 5678 5681 5685 5689 5693 5697 5701 5705 5709 5713 5717 5720 5723 5725 5727 5728 5729 5729 5729 5729 5729 5729 5728 5727 5726 5725 5723 5721 5719
5699 5696 5688 5684 5681 5679 5681 5676 5674 5673 5673 5675 5675 5676 5678 5681 5684 5687 5692 5695 5698 5701 5705 5708 5712 5716 5718 5721 5723 5725 5726 5726 5727 5727 5727 5728 5728 5727 5726 5725 5724 5722 5720 5718 5716
5710 5708 5701 5697 5694 5693 5690 5686 5684 5683 5683 5684 5684 5685 5687 5689 5691 5694 5697 5700 5703 5706 5708 5711 5714 5717 5720 5722 5723 5723 5724 5725 5725 5727 5726 5726 5727 5724 5723 5722 5721 5719 5718 5716 5714
5720 5717 5712 5708 5707 5705 5701 5697 5695 5693 5694 5694 5694 5694 5695 5697 5699 5700 5703 5705 5708 5710 5713 5716 5718 5720 5721 5723 5723 5723 5723 5724 5724 5724 5724 5723 5724 5722 5721 5720 5719 5717 5715 5712 5710
5728 5725 5721 5718 5715 5714 5712 5709 5707 5705 5703 5703 5703 5703 5704 5705 5707 5709 5710 5711 5713 5714 5716 5717 5718 5719 5720 5721 5722 5722 5722 5722 5722 5722 5722 5722 5721 5720 5719 5718 5716 5714 5712 5709 5706
5736 5733 5729 5726 5723 5720 5718 5716 5715 5714 5713 5712 5712 5711 5711 5712 5713 5714 5714 5715 5716 5717 5718 5718 5719 5720 5721 5721 5722 5723 5723 5723 5723 5723 5722 5722 5720 5719 5717 5715 5713 5710 5708 5705 5701
5742 5739 5736 5733 5730 5727 5725 5723 5721 5720 5719 5717 5717 5716 5716 5716 5716 5717 5717 5718 5718 5719 5720 5721 5722 5722 5722 5722 5722 5722 5722 5722 5722 5722 5720 5719 5718 5715 5714 5711 5709 5705 5702 5699 5695
5745 5744 5741 5739 5736 5733 5731 5729 5727 5726 5725 5723 5723 5722 5721 5721 5720 5720 5720 5720 5721 5722 5722 5722 5722 5723 5723 5722 5722 5724 5722 5721 5721 5719 5718 5716 5714 5711 5708 5706 5703 5700 5696 5693 5690